Dewpoint
51 51 52 52 52 52 52 52 52 52 52 53 53 54 54 55 56 56 56 55 54 54 52 52 51 51 48 47 47 45 45 43 42 40 38 37 37 38 36 36 36 36 35
50 50 51 51 52 52 51 51 52 52 52 52 52 53 54 55 55 55 55 54 53 52 51 51 51 47 46 45 45 43 42 42 40 39 38 37 36 37 36 36 34 32 33
50 49 49 50 50 51 50 51 52 52 52 53 53 53 53 54 55 55 55 53 52 52 51 50 48 45 44 43 43 42 40 40 39 38 37 36 35 35 34 32 31 30 28
48 48 49 49 49 49 50 51 52 53 53 53 54 54 55 55 55 54 53 52 51 50 49 48 46 45 43 42 41 41 41 39 38 37 36 34 33 32 29 26 22 19 17
49 48 48 50 50 49 50 53 54 54 54 54 54 55 55 55 54 53 52 50 48 46 45 44 44 43 42 42 41 39 39 36 33 31 29 29 28 25 21 16 17 18 19
48 49 49 49 50 51 52 54 55 54 54 55 55 54 53 52 50 50 49 47 45 43 39 38 36 35 34 34 33 32 31 29 28 26 26 23 19 15 17 19 18 17 12
49 49 50 51 50 51 53 54 54 54 53 52 51 50 48 46 45 45 45 44 42 38 35 33 31 30 29 27 25 23 22 20 20 20 17 15 16 18 21 19 18 18 18
51 51 52 53 53 51 51 51 50 48 47 46 45 44 43 41 42 41 39 37 34 32 31 30 29 28 27 23 19 19 20 21 22 21 22 21 22 22 23 22 21 21 20
52 51 51 51 50 49 48 47 45 43 43 42 42 41 38 36 35 34 33 30 28 26 26 26 24 23 26 21 19 19 19 21 22 21 21 19 19 21 22 20 19 17 17
50 50 50 50 48 46 44 42 42 41 38 38 36 36 35 33 32 31 29 27 24 22 21 23 22 20 24 24 22 19 17 18 17 14 13 14 16 17 19 18 17 16 14
47 47 46 45 44 42 42 41 38 35 33 32 31 31 31 31 31 29 27 25 22 19 17 16 20 24 24 23 20 19 18 16 14 13 12 12 13 13 12 12 12 13 14
44 43 42 42 41 41 38 36 34 33 31 29 28 27 27 27 26 25 24 23 21 19 16 17 21 23 23 20 18 19 17 15 15 13 12 11 11 10 10 9 10 11 13
41 40 39 39 38 37 36 34 32 32 30 29 27 25 24 24 23 21 20 21 21 20 20 20 21 22 20 18 17 17 16 15 14 13 12 11 9 9 9 10 10 10 11
38 37 36 35 33 33 33 33 32 31 29 28 26 23 21 19 19 22 24 25 21 19 20 19 21 20 18 17 16 15 15 14 12 12 11 10 10 9 8 8 8 8 8
35 33 31 30 29 28 28 28 29 29 29 27 25 24 23 23 23 25 24 22 22 21 20 19 17 16 14 14 14 13 12 12 11 11 11 10 9 7 7 7 7 7 7
29 28 27 26 26 26 25 25 29 29 29 28 28 26 26 25 24 19 18 19 19 18 17 16 16 15 13 13 13 13 12 12 11 10 9 8 7 5 5 6 6 6 5
27 26 26 26 26 26 25 23 23 25 25 24 24 24 21 20 21 22 22 21 20 18 17 16 15 15 14 12 12 11 10 10 10 8 6 6 5 5 4 5 5 5 4
27 27 27 26 26 26 26 26 25 24 23 22 23 23 22 21 20 19 18 17 16 16 14 14 13 13 12 11 10 9 8 7 6 5 5 5 4 4 4 4 3 4 4
25 24 24 24 24 24 24 23 23 22 21 20 19 18 19 18 17 16 15 14 13 12 12 11 11 11 10 9 8 8 7 6 5 5 4 3 4 4 3 3 3 3 3
21 22 22 22 21 21 20 19 19 18 17 16 15 15 15 14 13 12 12 12 11 9 9 8 8 7 7 6 6 6 5 4 3 2 2 3 3 3 3 3 3 3 2
20 19 19 18 18 17 17 16 16 15 14 13 12 11 11 11 10 9 8 8 7 6 6 5 5 4 3 3 2 2 2 1 1 0 0 1 2 2 2 3 3 3 3
18 17 16 15 14 14 13 13 12 11 11 10 9 7 8 8 7 6 5 4 4 4 3 2 1 1 -0 -0 -0 -0 -1 -1 -1 -0 0 1 1 1 2 2 2 2 3
15 14 12 11 10 10 10 9 9 8 7 7 6 6 5 5 4 3 2 2 1 0 -0 -1 -1 -2 -2 -2 -1 -2 -2 -2 -1 -0 -0 -0 0 1 1 2 2 2 2
10 9 8 8 7 6 6 5 5 4 4 4 4 3 2 2 1 0 -1 -1 -2 -2 -2 -2 -3 -4 -4 -4 -3 -3 -3 -2 -1 -0 -0 -0 -1 -0 1 1 1 2 2
7 5 4 4 3 2 1 1 1 1 1 1 1 0 -1 -1 -2 -2 -3 -3 -4 -4 -4 -5 -4 -5 -5 -6 -6 -5 -4 -3 -2 -1 -1 -1 -1 -1 -1 -0 0 1 1
3 2 2 1 -0 -1 -1 -1 -1 -2 -2 -3 -4 -4 -4 -5 -4 -4 -5 -5 -6 -7 -6 -6 -6 -7 -7 -7 -6 -4 -4 -4 -3 -3 -3 -2 -2 -1 -0 0 1 1 1
Wind_Speed
28 26 24 23 24 22 21 21 22 21 21 21 20 19 19 19 18 17 17 17 20 19 16 17 18 13 13 12 12 14 13 11 11 4 5 4 4 8 7 5 3 6 8
24 24 25 25 26 28 30 32 24 22 19 19 18 19 21 20 17 18 18 15 19 19 18 16 15 12 14 12 14 17 15 11 7 12 7 6 8 4 4 5 4 6 7
24 24 25 27 26 28 32 25 22 20 20 18 20 23 23 20 18 17 18 19 19 17 17 17 17 18 17 13 14 15 12 10 8 7 8 5 5 4 7 3 6 8 9
25 26 25 26 27 28 24 15 18 18 20 20 20 21 20 20 19 17 17 18 17 16 14 14 14 16 17 16 13 13 11 10 8 9 6 5 6 6 4 8 9 7 11
25 27 30 27 25 25 21 17 16 19 19 19 20 19 18 18 17 18 17 16 14 12 11 11 10 11 14 14 11 9 11 9 8 7 5 5 7 7 7 5 9 11 13
26 29 26 26 24 24 20 15 14 14 15 17 19 18 18 18 18 22 18 16 15 15 15 14 15 19 18 17 16 11 9 7 4 3 3 6 7 7 6 8 10 10 7
26 24 23 23 23 21 15 12 13 14 13 15 14 13 12 8 12 15 14 12 15 16 16 16 14 13 15 15 16 15 12 10 5 4 5 5 5 5 6 10 11 11 13
23 22 20 19 17 13 13 14 12 9 9 8 6 8 9 7 14 17 20 17 18 16 15 14 17 12 10 12 10 8 7 5 4 2 1 3 6 7 9 11 13 14 14
18 16 17 17 16 15 15 13 10 11 11 10 11 12 16 16 20 20 20 19 20 18 15 14 13 13 10 9 8 7 6 5 4 3 3 5 6 7 7 9 10 11 14
17 16 15 15 16 14 13 14 10 14 15 16 17 16 19 17 18 19 19 18 19 16 14 14 11 11 9 7 7 5 4 3 1 3 3 4 4 4 5 6 7 12 12
16 16 15 15 16 16 17 16 17 17 18 18 21 18 19 16 17 18 17 15 16 14 11 9 8 9 9 10 7 5 4 2 1 2 4 4 4 5 6 5 7 10 12
20 19 18 16 15 15 19 16 16 19 20 18 20 18 16 17 19 21 20 17 13 13 11 8 8 8 11 9 7 9 6 2 1 3 5 4 6 7 7 9 11 12 14
22 21 21 19 17 15 18 17 16 15 16 15 16 16 15 13 16 21 20 19 16 13 9 9 9 9 10 8 7 6 2 1 2 5 6 6 7 9 11 11 12 14 17
23 20 19 21 19 17 15 14 14 13 14 14 14 15 13 12 11 9 9 11 10 10 9 7 7 7 5 3 2 1 2 3 4 6 7 8 8 9 10 10 13 15 18
22 19 19 18 19 20 19 14 14 11 11 14 13 13 13 11 9 9 8 7 7 7 7 6 4 2 0 2 2 2 3 5 6 7 9 11 11 11 11 10 13 14 17
22 19 16 18 18 19 21 24 27 22 23 22 17 15 15 17 14 13 12 11 11 7 4 3 2 1 3 5 6 6 6 7 8 10 12 12 12 13 14 13 13 13 17
23 21 20 18 17 18 16 18 22 22 26 23 21 19 19 17 15 13 11 11 8 5 5 4 3 3 5 6 7 8 10 9 10 12 13 13 13 14 14 14 14 15 17
25 23 20 17 16 16 15 14 14 13 14 15 17 16 17 16 15 13 11 6 6 7 6 5 5 5 7 8 9 9 10 11 12 13 14 14 14 14 15 15 15 16 17
21 22 20 17 17 17 17 16 15 15 14 14 13 14 14 15 14 14 13 9 7 6 6 6 7 7 8 9 11 12 12 13 13 15 15 15 14 14 15 15 17 17 18
24 23 20 17 16 17 16 15 15 14 13 12 11 9 7 7 10 10 10 9 7 7 8 8 9 9 10 11 12 13 14 14 15 15 16 16 15 14 15 16 16 17 17
19 18 19 18 17 16 15 15 14 13 13 12 12 12 11 9 8 8 8 9 8 8 8 9 9 10 11 12 13 14 15 16 16 16 16 15 14 15 15 15 16 16 17
17 17 17 17 16 17 16 15 13 13 12 11 10 11 11 10 9 8 8 7 7 7 7 8 10 11 12 13 14 15 15 16 15 15 14 14 14 15 15 15 16 16 17
18 18 18 17 16 16 15 14 13 13 12 10 9 9 9 9 8 7 7 7 8 8 9 9 11 12 11 11 12 13 14 15 14 14 15 15 16 15 15 16 16 17 17
18 17 17 15 14 14 14 13 12 13 11 10 9 8 8 7 6 7 7 8 9 10 10 10 10 12 13 13 13 13 13 13 13 15 16 16 18 17 17 17 17 18 18
16 16 15 14 13 12 12 12 11 10 10 8 7 6 6 7 7 8 9 9 9 10 11 12 11 13 14 17 17 17 15 16 15 16 16 17 19 19 19 18 18 18 17
15 15 13 12 12 11 10 10 9 8 7 6 6 6 6 7 7 8 8 8 10 12 13 12 14 17 18 17 15 15 17 18 18 17 16 16 17 17 16 17 18 17 17
Wind_Direction
194 194 196 199 204 209 216 220 221 222 220 221 223 227 229 229 221 215 220 219 220 229 212 212 218 228 206 196 187 187 200 186 201 165 182 165 195 234 235 225 237 258 263
186 187 192 194 199 207 217 222 223 230 230 231 230 231 235 225 211 210 228 229 224 223 228 216 224 185 192 178 179 192 190 184 164 189 192 218 219 226 245 263 263 264 271
188 185 194 203 207 213 220 219 222 223 222 219 220 225 232 231 225 219 222 221 222 223 226 220 205 185 189 180 176 186 174 169 182 166 183 190 213 233 246 256 277 285 280
191 195 201 205 210 221 231 223 219 223 229 227 225 227 230 230 219 215 214 218 215 220 209 203 185 187 174 167 179 172 184 172 162 179 185 201 227 220 262 279 280 282 290
195 198 208 210 215 227 228 222 214 212 225 229 235 236 232 220 212 205 209 205 195 178 158 155 155 157 155 157 163 165 153 163 163 173 183 207 227 250 266 282 282 291 290
200 207 208 213 215 222 226 227 209 212 220 227 226 222 213 213 206 200 184 182 167 154 136 114 98 93 90 93 98 103 114 145 171 184 222 244 252 266 268 281 284 290 297
201 204 207 211 217 220 219 206 211 214 211 215 209 201 200 197 181 174 152 140 138 129 124 116 100 95 99 98 97 96 87 88 109 193 232 249 268 262 287 280 276 278 277
198 199 198 196 196 177 178 190 191 185 190 179 164 139 124 115 134 129 113 108 103 101 105 107 114 111 103 119 122 120 115 112 111 131 231 275 273 284 275 278 287 288 287
175 168 162 163 162 171 176 170 154 139 127 121 117 118 115 109 110 111 107 101 96 88 84 89 98 106 121 121 128 126 129 123 102 51 358 324 304 297 292 285 277 293 296
149 152 153 157 155 149 139 128 116 112 107 100 90 90 98 102 100 100 102 106 102 100 93 95 101 115 122 119 116 128 147 132 21 327 308 293 293 299 292 283 302 287 298
128 123 120 120 123 123 118 116 115 109 101 94 90 80 82 88 91 97 101 109 120 118 117 113 106 111 117 114 113 115 115 121 130 294 288 289 287 273 286 304 293 285 284
114 108 104 104 108 112 112 107 108 112 109 105 101 87 76 76 80 83 86 93 101 108 105 107 115 126 125 115 103 114 110 133 289 293 279 278 291 299 306 304 298 288 278
107 104 101 97 94 97 107 110 107 108 113 111 105 101 91 80 79 81 84 86 86 94 105 111 117 129 126 117 116 118 110 348 302 292 296 300 307 308 307 304 304 298 292
109 105 102 98 91 83 83 92 103 111 114 114 115 115 114 107 97 89 90 92 98 99 110 105 112 116 106 114 156 93 350 334 316 308 308 312 309 308 305 311 309 307 302
97 97 94 90 90 82 69 68 81 72 113 120 116 120 121 114 103 98 100 100 105 111 117 119 115 113 267 295 289 311 317 320 320 321 312 308 306 309 309 311 306 304 299
102 95 93 95 93 92 90 80 65 78 89 97 103 108 94 109 112 102 95 93 99 99 77 64 52 11 315 313 307 309 314 315 318 315 309 306 307 311 310 309 302 298 298
96 94 92 94 98 102 98 99 98 80 81 86 92 97 100 103 92 82 74 77 78 51 33 15 350 331 319 312 313 313 313 319 319 311 308 307 307 306 305 302 302 300 300
86 85 88 89 90 89 91 93 97 98 95 87 81 89 86 83 77 64 51 58 36 31 19 2 344 329 320 317 317 316 315 314 310 309 308 308 304 300 300 296 298 298 300
84 85 84 82 81 82 85 86 88 91 96 100 94 70 64 67 63 55 47 46 30 24 15 353 342 331 327 324 321 315 313 310 312 309 306 303 300 295 294 296 298 296 298
76 80 84 84 83 84 85 88 88 88 89 86 76 60 56 62 56 52 51 46 36 23 7 355 348 339 329 321 316 311 305 307 307 306 305 301 297 292 291 294 292 294 295
79 77 84 85 85 86 87 86 88 90 91 86 76 60 54 64 56 49 43 37 25 11 357 344 336 329 322 318 312 310 306 304 304 301 299 297 296 294 292 288 289 292 294
82 81 81 82 82 80 81 82 84 85 84 85 79 63 57 60 54 45 40 29 14 7 360 344 329 323 318 314 310 305 301 301 301 300 299 298 293 292 291 290 291 292 294
79 82 81 80 81 83 81 80 80 79 76 69 61 55 48 46 40 30 20 10 358 346 339 329 319 314 313 309 307 303 299 298 299 298 295 294 293 292 292 290 289 291 295
79 82 84 82 81 80 79 79 76 69 66 62 57 52 42 31 19 6 355 346 337 330 327 322 315 312 312 310 305 301 296 293 294 289 286 286 287 287 286 286 286 289 293
79 82 81 81 81 81 78 73 69 66 63 57 49 34 16 360 350 344 338 334 331 327 321 316 313 314 311 309 301 297 294 294 288 288 287 281 279 280 278 278 281 286 289
81 81 81 80 77 75 76 76 72 65 56 41 25 10 358 349 341 337 334 327 325 317 315 317 313 312 310 305 300 301 299 294 292 289 284 278 274 273 274 275 280 282 287